• In United Kingdom
  • List of Countries
  • For 7 days
  • Water Temperature
  • Satellite Maps
  • Weather Map
  • Weather Widgets
  • user-avatar
    Login

    Hourly Weather Nashavar

    Today, 20 July, Friday

    Time Temperature Precipitation Wind Pressure Humidity
    00:00 +37°C° 0.8 mm 2 mps 721 mmHg 50%
    01:00 +37°C° 0.8 mm 2 mps 721 mmHg 53%
    02:00 +36°C° 0.8 mm 2 mps 721 mmHg 55%
    03:00 +36°C° 0.7 mm 2 mps 721 mmHg 57%
    04:00 +35°C° 0.7 mm 2 mps 721 mmHg 60%
    05:00 +34°C° 0.7 mm 2 mps 721 mmHg 62%
    06:00 +35°C° 0.5 mm 2 mps 721 mmHg 62%
    07:00 +35°C° 0.5 mm 2 mps 721 mmHg 61%
    08:00 +35°C° 0.5 mm 2 mps 721 mmHg 60%
    09:00 +36°C° 0.6 mm 2 mps 721 mmHg 56%
    10:00 +37°C° 0.6 mm 2 mps 721 mmHg 51%
    11:00 +38°C° 0.6 mm 2 mps 721 mmHg 46%
    12:00 +39°C° 0 mm 2 mps 721 mmHg 44%
    13:00 +40°C° 0 mm 2 mps 721 mmHg 41%
    14:00 +42°C° 0 mm 3 mps 720 mmHg 38%
    15:00 +42°C° 0 mm 3 mps 720 mmHg 38%
    16:00 +42°C° 0 mm 3 mps 720 mmHg 37%
    17:00 +43°C° 0 mm 3 mps 719 mmHg 37%
    18:00 +42°C° 0 mm 3 mps 719 mmHg 39%
    19:00 +40°C° 0 mm 3 mps 720 mmHg 40%
    20:00 +40°C° 0 mm 3 mps 720 mmHg 42%
    21:00 +39°C° 0.4 mm 2 mps 720 mmHg 44%
    22:00 +39°C° 0.4 mm 2 mps 720 mmHg 46%
    23:00 +38°C° 0.4 mm 2 mps 720 mmHg 48%

    Tomorrow, 21 July, Saturday

    Time Temperature Precipitation Wind Pressure Humidity
    00:00 +38°C° 0.4 mm 2 mps 720 mmHg 50%
    01:00 +36°C° 0.4 mm 1 mps 720 mmHg 52%
    02:00 +36°C° 0.4 mm 1 mps 720 mmHg 54%
    03:00 +35°C° 0.4 mm 1 mps 720 mmHg 56%
    04:00 +35°C° 0.4 mm 1 mps 720 mmHg 57%
    05:00 +34°C° 0.4 mm 1 mps 720 mmHg 59%
    06:00 +35°C° 0.5 mm 1 mps 720 mmHg 58%
    07:00 +35°C° 0.5 mm 1 mps 721 mmHg 56%
    08:00 +36°C° 0.5 mm 2 mps 721 mmHg 54%
    09:00 +36°C° 0.2 mm 1 mps 721 mmHg 50%
    10:00 +37°C° 0.2 mm 1 mps 721 mmHg 46%
    11:00 +40°C° 0.2 mm 1 mps 721 mmHg 43%
    12:00 +40°C° 0 mm 1 mps 720 mmHg 39%
    13:00 +41°C° 0 mm 1 mps 720 mmHg 36%
    14:00 +42°C° 0 mm 2 mps 720 mmHg 33%
    15:00 +43°C° 0 mm 2 mps 719 mmHg 33%
    16:00 +43°C° 0 mm 2 mps 719 mmHg 32%
    17:00 +43°C° 0 mm 2 mps 718 mmHg 31%
    18:00 +43°C° 0 mm 2 mps 718 mmHg 33%
    19:00 +43°C° 0 mm 3 mps 719 mmHg 36%
    20:00 +42°C° 0 mm 3 mps 719 mmHg 38%
    21:00 +40°C° 0.1 mm 2 mps 719 mmHg 40%
    22:00 +40°C° 0.1 mm 2 mps 719 mmHg 42%
    23:00 +39°C° 0.1 mm 1 mps 719 mmHg 44%

    Day after tomorrow, 22 July, Sunday

    Time Temperature Precipitation Wind Pressure Humidity
    00:00 +39°C° 0.3 mm 1 mps 719 mmHg 45%
    01:00 +37°C° 0.3 mm 1 mps 719 mmHg 47%
    02:00 +37°C° 0.3 mm 1 mps 719 mmHg 48%
    03:00 +37°C° 0.1 mm 1 mps 719 mmHg 50%
    04:00 +36°C° 0.1 mm 1 mps 719 mmHg 51%
    05:00 +36°C° 0.1 mm 1 mps 719 mmHg 52%
    06:00 +36°C° 0 mm 1 mps 719 mmHg 49%
    07:00 +37°C° 0 mm 1 mps 718 mmHg 46%
    08:00 +39°C° 0 mm 1 mps 718 mmHg 43%
    09:00 +40°C° 0 mm 1 mps 719 mmHg 39%
    10:00 +41°C° 0 mm 1 mps 719 mmHg 35%
    11:00 +42°C° 0 mm 1 mps 719 mmHg 31%
    12:00 +43°C° 0 mm 1 mps 718 mmHg 29%
    13:00 +44°C° 0 mm 1 mps 718 mmHg 27%
    14:00 +46°C° 0 mm 2 mps 718 mmHg 25%
    15:00 +46°C° 0 mm 2 mps 717 mmHg 25%
    16:00 +46°C° 0 mm 2 mps 717 mmHg 25%
    17:00 +46°C° 0 mm 3 mps 717 mmHg 25%
    18:00 +46°C° 0 mm 3 mps 717 mmHg 27%
    19:00 +45°C° 0 mm 3 mps 718 mmHg 29%
    20:00 +44°C° 0 mm 3 mps 718 mmHg 31%
    21:00 +43°C° 0.2 mm 3 mps 718 mmHg 33%
    22:00 +43°C° 0.2 mm 3 mps 719 mmHg 35%
    23:00 +42°C° 0.2 mm 3 mps 719 mmHg 37%

    23 July, Monday

    Time Temperature Precipitation Wind Pressure Humidity
    00:00 +40°C° 0.4 mm 3 mps 719 mmHg 41%
    01:00 +40°C° 0.4 mm 4 mps 719 mmHg 45%
    02:00 +38°C° 0.4 mm 4 mps 719 mmHg 49%
    03:00 +37°C° 0.8 mm 4 mps 719 mmHg 54%
    04:00 +36°C° 0.8 mm 3 mps 719 mmHg 59%
    05:00 +35°C° 0.8 mm 3 mps 719 mmHg 65%
    06:00 +35°C° 0.3 mm 3 mps 719 mmHg 65%
    07:00 +35°C° 0.3 mm 3 mps 719 mmHg 66%
    08:00 +35°C° 0.3 mm 2 mps 720 mmHg 67%
    09:00 +36°C° 0.3 mm 2 mps 720 mmHg 62%
    10:00 +37°C° 0.3 mm 2 mps 720 mmHg 58%
    11:00 +38°C° 0.3 mm 2 mps 720 mmHg 54%
    12:00 +39°C° 0 mm 3 mps 719 mmHg 50%
    13:00 +40°C° 0 mm 3 mps 719 mmHg 46%
    14:00 +42°C° 0 mm 3 mps 718 mmHg 43%
    15:00 +42°C° 0 mm 3 mps 718 mmHg 42%
    16:00 +42°C° 0 mm 4 mps 718 mmHg 42%
    17:00 +43°C° 0 mm 4 mps 718 mmHg 42%
    18:00 +42°C° 0.4 mm 5 mps 718 mmHg 45%
    19:00 +41°C° 0.4 mm 5 mps 719 mmHg 49%
    20:00 +40°C° 0.4 mm 6 mps 719 mmHg 52%
    21:00 +39°C° 2.2 mm 5 mps 719 mmHg 56%
    22:00 +37°C° 2.2 mm 5 mps 720 mmHg 59%
    23:00 +36°C° 2.2 mm 4 mps 720 mmHg 62%

    24 July, Tuesday

    Time Temperature Precipitation Wind Pressure Humidity
    00:00 +36°C° 2 mm 4 mps 720 mmHg 64%
    01:00 +35°C° 2 mm 4 mps 720 mmHg 66%
    02:00 +35°C° 2 mm 3 mps 720 mmHg 67%
    03:00 +34°C° 2.6 mm 3 mps 720 mmHg 69%
    04:00 +34°C° 2.6 mm 3 mps 720 mmHg 70%
    05:00 +32°C° 2.6 mm 2 mps 720 mmHg 71%
    06:00 +34°C° 1.1 mm 2 mps 720 mmHg 69%
    07:00 +34°C° 1.1 mm 2 mps 720 mmHg 68%
    08:00 +34°C° 1.1 mm 2 mps 721 mmHg 66%
    09:00 +35°C° 0.4 mm 2 mps 721 mmHg 62%
    10:00 +36°C° 0.4 mm 2 mps 721 mmHg 59%
    11:00 +37°C° 0.4 mm 2 mps 721 mmHg 55%
    12:00 +38°C° 0 mm 3 mps 721 mmHg 52%
    13:00 +39°C° 0 mm 3 mps 720 mmHg 49%
    14:00 +39°C° 0 mm 3 mps 720 mmHg 47%
    15:00 +40°C° 0 mm 3 mps 720 mmHg 46%
    16:00 +41°C° 0 mm 4 mps 720 mmHg 45%
    17:00 +41°C° 0 mm 4 mps 719 mmHg 45%
    18:00 +40°C° 0.1 mm 4 mps 720 mmHg 47%
    19:00 +40°C° 0.1 mm 4 mps 720 mmHg 50%
    20:00 +38°C° 0.1 mm 4 mps 721 mmHg 52%
    21:00 +37°C° 0.8 mm 4 mps 721 mmHg 55%
    22:00 +37°C° 0.8 mm 3 mps 721 mmHg 58%
    23:00 +36°C° 0.8 mm 3 mps 722 mmHg 60%

    25 July, Wednesday

    Time Temperature Precipitation Wind Pressure Humidity
    00:00 +35°C° 1.8 mm 3 mps 721 mmHg 64%
    01:00 +35°C° 1.8 mm 3 mps 721 mmHg 67%
    02:00 +34°C° 1.8 mm 3 mps 721 mmHg 71%
    03:00 +34°C° 1.4 mm 2 mps 721 mmHg 71%
    04:00 +32°C° 1.4 mm 2 mps 721 mmHg 72%
    05:00 +32°C° 1.4 mm 2 mps 721 mmHg 72%
    06:00 +34°C° 0.5 mm 2 mps 721 mmHg 70%
    07:00 +34°C° 0.5 mm 2 mps 721 mmHg 67%
    08:00 +34°C° 0.5 mm 2 mps 721 mmHg 65%
    09:00 +35°C° 0.2 mm 2 mps 721 mmHg 60%
    10:00 +36°C° 0.2 mm 2 mps 721 mmHg 56%
    11:00 +37°C° 0.2 mm 2 mps 721 mmHg 51%
    12:00 +38°C° 0 mm 2 mps 721 mmHg 48%
    13:00 +39°C° 0 mm 3 mps 720 mmHg 46%
    14:00 +40°C° 0 mm 3 mps 720 mmHg 44%
    15:00 +40°C° 0 mm 3 mps 719 mmHg 43%
    16:00 +40°C° 0 mm 3 mps 719 mmHg 43%
    17:00 +40°C° 0 mm 3 mps 719 mmHg 43%
    18:00 +40°C° 0 mm 3 mps 719 mmHg 46%
    19:00 +39°C° 0 mm 3 mps 720 mmHg 49%
    20:00 +38°C° 0 mm 3 mps 720 mmHg 51%
    21:00 +38°C° 0.2 mm 3 mps 720 mmHg 53%
    22:00 +37°C° 0.2 mm 2 mps 720 mmHg 55%
    23:00 +37°C° 0.2 mm 2 mps 720 mmHg 57%
    Show more